This demonstration page uses our WeatherBlox Daily Observations layout. Learn more.

41.86663, -103.66717

Hourly Observations for May 25, 2019

Temp ( °F °C ) Dew Point ( °F °C ) Humidity (%) Winds ( mph kmh ) Pressure ( in mb ) Visibility ( mi km ) Precip ( " mm )
12:53 am 00:53 Clear 40 4.4 38 3.3 93 93 WNW 6 9 29.88 1012 10 16.09344 0 0
1:53 am 01:53 Clear 39 3.9 36 2.2 89 89 NNE 3 6 29.88 1012 10 16.09344 0 0
2:53 am 02:53 Clear 40 4.4 37 2.8 89 89 NNW 7 11 29.88 1012 10 16.09344 0 0
3:53 am 03:53 Clear 40 4.4 37 2.8 89 89 ENE 3 6 29.91 1013 10 16.09344 0 0
4:53 am 04:53 Clear 37 2.8 35 1.7 93 93 Calm 29.97 1015 10 16.09344 0 0
5:53 am 05:53 Sunny 38 3.3 36 2.2 93 93 NE 3 6 29.97 1015 10 16.09344 0 0
6:53 am 06:53 Sunny 45 7.2 40 4.4 83 83 NNW 3 6 29.97 1015 10 16.09344 0 0
7:53 am 07:53 Sunny 51 10.6 44 6.7 77 77 Calm 29.97 1015 10 16.09344 0 0
8:53 am 08:53 Sunny 56 13.3 43 6.1 62 62 SSW 5 7 29.97 1015 10 16.09344 0 0
9:53 am 09:53 Sunny 60 15.6 44 6.7 56 56 Calm 29.94 1014 10 16.09344 0 0
10:53 am 10:53 Sunny 64 17.8 43 6.1 46 46 Calm 29.94 1014 10 16.09344 0 0
11:53 am 11:53 Sunny 67 19.4 45 7.2 45 45 undefined N/A 29.94 1014 10 16.09344 0 0
12:53 pm 12:53 Sunny 70 21.1 44 6.7 39 39 S 7 11 29.91 1013 10 16.09344 0 0
1:53 pm 13:53 Mostly Cloudy 69 20.6 44 6.7 41 41 SE 7 11 29.91 1013 10 16.09344 0 0
2:53 pm 14:53 Mostly Cloudy 72 22.2 46 7.8 40 40 ESE 15 24 29.88 1012 10 16.09344 0 0
3:53 pm 15:53 Mostly Cloudy 71 21.7 44 6.7 38 38 ESE 16 26 29.88 1012 10 16.09344 0 0
4:53 pm 16:53 Mostly Cloudy 74 23.3 45 7.2 36 36 SE 10 17 29.85 1011 10 16.09344 0 0
5:53 pm 17:53 Sunny 74 23.3 44 6.7 34 34 SE 13 20 29.83 1010 10 16.09344 0 0
6:53 pm 18:53 Sunny 72 22.2 45 7.2 38 38 ESE 15 24 29.83 1010 10 16.09344 0 0
7:53 pm 19:53 Sunny 66 18.9 45 7.2 47 47 ESE 13 20 29.83 1010 10 16.09344 0 0
8:53 pm 20:53 Clear 61 16.1 44 6.7 54 54 undefined N/A 29.85 1011 10 16.09344 0 0
9:53 pm 21:53 Clear 57 13.9 45 7.2 64 64 E 10 17 29.88 1012 10 16.09344 0 0
10:53 pm 22:53 Clear 56 13.3 46 7.8 70 70 E 10 17 29.88 1012 10 16.09344 0 0
11:53 pm 23:53 Clear 55 12.8 48 8.9 77 77 SE 12 19 29.88 1012 10 16.09344 0 0

Powered by AerisWeather